Theta_e
307 306 306 306 306 305 306 309 304 311 312 301 306 297 304 300 303 306 304 301 300 297 298 296 296 296 299 303 301 294 296 290 286 291 297 299 296 292 293 285 283 284 283 287
306 306 306 306 306 305 300 303 308 313 313 295 295 301 302 304 304 302 301 299 301 300 296 290 297 298 304 304 299 296 294 287 280 284 292 298 294 295 294 291 287 283 281 285
306 306 306 306 305 305 303 305 300 305 306 304 298 297 299 299 306 304 304 301 301 298 296 298 295 297 303 305 304 307 300 289 286 281 287 291 289 292 294 289 279 286 287 289
306 306 306 306 305 305 305 306 300 301 294 298 300 299 300 298 299 303 303 300 299 297 287 294 294 298 299 302 306 300 293 286 290 292 293 294 292 292 293 289 289 285 288 289
305 306 306 306 305 305 306 298 296 299 297 302 301 299 298 297 298 297 296 296 299 297 291 292 290 295 294 294 298 296 296 289 292 291 295 295 292 294 294 292 291 291 293 292
304 305 306 306 306 305 303 305 304 300 299 299 297 295 297 297 299 300 300 297 295 295 297 300 299 298 298 298 295 294 292 289 284 284 293 292 285 289 291 293 294 293 285 290
304 305 305 306 306 305 301 303 303 296 293 296 296 298 298 296 297 295 298 299 296 300 304 301 298 297 297 297 296 297 291 289 286 284 287 279 289 296 297 295 296 295 295 295
303 303 304 305 305 306 300 303 302 296 291 295 296 296 296 297 299 297 297 301 302 301 298 291 288 289 291 294 297 296 297 290 286 284 283 287 291 294 291 284 288 296 294 296
303 303 303 303 305 305 301 303 306 298 292 294 297 294 296 292 291 293 296 301 303 301 294 289 281 280 286 287 290 298 296 294 286 285 282 280 290 297 301 297 282 299 296 294
302 303 303 303 303 304 301 301 307 301 293 297 296 292 292 297 294 291 295 296 296 298 289 285 283 284 291 284 286 286 285 286 285 284 281 286 294 299 300 283 284 297 296 294
301 302 303 303 303 303 301 299 308 302 296 296 299 300 295 295 293 288 294 292 293 292 286 286 287 285 287 285 287 284 282 280 279 284 281 277 299 295 288 292 295 296 295 294
301 302 302 303 303 303 302 297 302 303 298 297 302 302 303 301 300 296 295 293 292 293 288 288 287 284 285 284 280 291 281 285 284 286 284 294 297 296 299 299 296 294 293 295
301 301 302 303 303 303 302 297 299 299 296 296 298 300 306 307 305 306 294 295 298 295 297 291 288 283 287 280 283 287 290 292 284 286 291 293 297 298 300 301 300 297 299 297
302 302 302 302 303 302 302 297 299 298 296 290 295 305 300 304 303 303 305 301 301 299 297 293 288 283 290 285 288 287 290 291 288 289 292 295 297 299 300 300 300 298 296 296
303 302 302 303 302 302 302 300 300 301 296 291 293 299 301 302 305 303 302 301 298 295 294 290 289 292 291 290 289 286 291 291 288 287 295 295 295 299 300 297 296 296 295 294
302 302 302 302 302 302 299 297 305 303 300 294 286 295 297 301 303 302 301 302 300 297 294 291 293 294 292 287 284 291 293 296 298 294 297 297 299 299 300 297 296 295 294 293
302 302 302 302 302 299 293 293 299 302 300 293 287 289 300 301 302 301 300 303 300 298 296 293 293 291 294 289 284 291 294 296 297 299 298 295 295 295 297 296 296 296 292 291
301 301 301 301 302 300 295 299 302 301 296 294 287 288 293 304 297 295 301 298 299 296 294 295 291 293 293 287 291 292 293 295 297 297 298 297 297 296 295 295 294 290 288 288
300 300 301 299 296 294 300 306 306 301 296 291 291 286 285 300 295 296 295 297 292 297 292 291 293 292 287 289 290 290 292 294 295 296 296 295 294 293 293 293 291 288 287 288
300 298 295 294 298 303 304 298 294 294 294 295 288 292 287 293 293 291 292 295 291 288 293 296 290 290 293 294 293 294 295 297 297 293 291 292 291 291 292 291 290 289 289 288
297 295 295 299 305 299 296 291 290 291 288 292 292 292 289 297 290 289 294 289 290 286 291 291 287 286 290 294 294 295 297 298 297 296 295 294 293 292 291 290 289 289 289 289
295 294 298 298 295 292 288 288 291 290 287 293 291 293 294 295 299 292 292 289 290 286 295 291 286 290 293 294 294 296 299 297 296 295 295 294 294 293 291 290 289 290 290 290
299 294 291 290 290 283 283 282 286 287 292 296 295 292 295 297 297 293 292 288 286 295 290 288 289 292 294 294 295 297 298 298 296 296 295 295 294 293 291 290 291 291 291 292
290 289 283 285 284 286 287 287 289 295 297 296 295 292 293 295 293 293 289 291 292 287 285 284 289 292 294 295 297 299 297 297 296 295 294 294 293 291 291 292 292 291 291 292
289 289 282 285 289 291 292 294 295 298 299 297 294 292 293 291 290 291 289 288 286 287 284 288 293 294 295 295 296 299 299 297 295 295 294 294 293 291 290 292 292 293 293 293
290 288 286 289 289 290 292 293 293 298 296 296 295 291 287 287 289 287 286 287 286 289 292 295 295 294 295 295 298 301 299 297 295 295 295 295 295 291 291 293 294 294 294 293
287 285 290 289 289 288 290 292 293 298 295 289 291 287 286 291 286 285 290 289 292 294 296 296 296 294 296 297 300 302 298 296 295 295 295 295 296 296 293 290 293 295 294 295
Wind_Speed
26 29 30 31 31 33 9 5 2 3 3 3 2 1 1 1 6 3 1 2 4 5 7 4 6 7 4 5 3 2 3 3 5 10 23 20 14 10 1 5 7 3 3 18
26 28 31 32 29 22 7 6 4 4 5 4 5 10 10 3 2 6 6 6 6 8 6 4 4 5 9 4 7 5 4 2 6 11 8 3 4 7 9 5 1 8 6 12
25 27 30 33 35 27 2 4 5 6 5 4 6 6 5 9 2 1 4 6 6 6 4 5 6 11 7 13 7 10 7 6 9 11 10 10 15 16 14 4 3 13 17 26
24 26 29 33 37 37 2 2 4 5 5 6 7 6 7 9 6 8 9 5 10 8 1 5 7 9 10 14 15 6 7 8 11 17 18 18 19 19 15 15 19 17 27 23
23 25 26 29 33 39 5 4 5 6 8 8 9 6 4 9 11 8 7 4 8 7 6 4 6 10 6 6 5 8 3 11 10 21 18 17 21 20 20 19 20 22 22 17
21 22 24 25 28 24 5 5 5 2 6 7 6 5 8 8 7 5 11 10 7 7 8 8 7 8 9 13 15 17 11 9 4 22 10 13 16 10 15 16 16 7 4 4
18 20 21 22 23 19 4 3 5 3 5 7 9 14 13 14 11 7 10 7 5 6 9 8 8 14 18 19 22 17 18 13 5 14 6 18 9 8 10 7 6 7 8 7
17 18 19 20 20 21 4 5 4 4 5 8 11 14 10 10 9 6 6 8 2 4 6 5 7 6 6 7 5 10 6 9 6 8 11 11 12 10 3 1 7 6 3 7
14 16 17 19 19 19 6 4 4 3 4 3 11 10 8 5 6 6 9 12 4 8 3 3 3 4 9 6 11 10 8 6 4 6 7 3 4 16 8 4 6 5 1 7
12 15 16 16 18 19 9 4 6 3 4 5 8 2 5 5 7 5 6 8 6 4 1 2 4 6 13 7 7 9 6 4 3 4 7 6 14 9 4 3 7 11 6 6
10 12 15 15 16 18 11 7 4 3 4 12 6 9 6 8 4 2 7 6 6 4 4 3 4 4 5 7 10 8 4 4 4 6 3 6 12 17 4 8 6 8 4 4
9 11 12 14 14 15 13 4 9 8 4 7 17 23 23 15 12 2 3 3 4 3 2 3 3 4 5 5 7 6 5 1 6 4 7 18 16 13 12 13 8 4 4 9
10 11 11 13 14 13 9 5 6 7 5 9 6 4 7 6 11 8 4 2 2 2 2 2 2 5 3 4 8 11 7 10 5 14 5 13 12 14 13 18 14 7 9 8
12 12 12 13 14 14 12 5 5 5 4 4 7 9 12 16 13 8 8 7 2 4 2 2 3 2 3 4 10 14 11 14 10 14 12 18 10 10 16 10 7 8 9 10
12 12 12 12 15 16 11 7 7 6 4 4 9 19 14 8 5 8 5 3 5 3 2 3 4 3 4 4 6 8 3 7 5 11 16 10 20 17 10 7 8 9 9 11
11 12 11 12 13 14 5 1 4 4 4 3 6 7 7 8 8 8 6 6 4 3 3 2 3 2 0 4 4 3 16 16 8 7 13 13 12 10 5 7 8 10 9 9
11 10 10 12 12 5 4 4 3 9 5 3 5 5 3 7 6 4 3 2 3 4 3 3 3 3 4 4 6 13 13 15 12 9 12 12 12 11 9 9 10 10 9 8
9 12 13 14 11 12 6 6 16 6 3 3 4 6 5 1 1 2 3 2 3 2 3 2 3 3 3 4 9 13 15 14 13 12 12 11 12 11 10 11 8 9 8 9
11 13 17 6 4 4 0 7 8 4 2 3 4 3 4 4 3 1 3 3 3 2 3 3 2 3 2 5 11 12 14 10 11 14 13 12 11 12 11 10 9 8 9 8
12 6 4 3 1 6 5 2 3 4 3 3 4 5 8 6 7 2 4 4 2 4 3 2 1 0 4 4 11 10 10 6 9 13 11 11 9 11 12 10 8 8 8 7
3 2 2 3 5 3 5 4 4 5 4 5 5 8 7 4 1 2 3 2 4 4 3 2 1 1 5 10 13 11 11 4 8 7 8 9 10 10 9 8 8 8 7 9
4 4 5 4 3 4 5 4 5 6 5 6 4 5 5 2 3 3 2 1 3 5 6 1 1 2 7 10 12 13 7 7 7 8 10 10 10 10 8 7 7 7 9 8
3 3 3 3 3 2 6 6 4 4 4 5 4 3 2 3 1 4 2 4 5 2 2 1 2 3 5 8 9 10 6 1 5 7 9 9 9 9 9 7 7 8 8 10
3 4 5 5 6 7 7 7 5 2 3 1 3 3 2 3 4 4 4 5 1 1 2 2 1 3 6 7 8 9 3 3 8 9 8 9 11 10 8 7 6 9 9 7
4 5 5 7 7 8 7 8 5 3 7 4 2 3 2 3 3 3 3 3 2 2 1 3 1 3 4 7 8 8 2 6 7 7 7 7 9 8 8 8 9 8 7 10
4 6 6 7 8 8 6 6 5 6 4 2 2 2 3 4 3 4 4 3 2 2 3 2 2 3 3 5 7 4 8 8 6 6 6 5 7 9 8 6 6 9 8 8
6 5 7 8 9 9 9 7 7 6 3 3 3 3 4 3 3 3 3 4 5 1 5 4 3 1 3 4 7 3 8 7 6 6 5 8 7 6 9 9 8 7 5 6
Wind_Direction
355 353 351 352 357 346 4 317 346 249 105 35 232 18 99 290 23 11 360 348 299 342 15 330 332 328 3 70 79 267 86 250 280 267 273 269 250 252 101 99 296 262 258 273
357 354 352 350 356 9 316 318 277 309 82 54 347 356 345 184 38 31 1 328 349 4 345 343 270 294 310 219 179 185 145 306 336 326 331 359 49 338 336 295 121 254 250 262
358 357 354 352 347 350 319 306 342 350 14 76 35 349 329 348 140 131 44 341 317 286 288 330 296 314 318 312 348 144 123 191 178 232 243 296 290 294 293 272 255 289 257 280
359 359 358 357 348 343 1 359 24 3 331 339 332 309 288 288 10 24 24 346 341 354 344 328 286 298 312 326 312 167 153 221 223 237 250 253 261 274 279 275 269 257 278 273
1 359 1 1 357 340 63 35 14 343 295 301 298 290 46 16 359 9 321 307 323 349 328 287 296 342 338 259 310 299 234 264 272 262 255 268 274 271 274 273 280 276 282 284
2 359 2 4 8 356 1 353 319 270 281 296 300 12 342 333 344 314 349 343 336 314 349 340 312 283 267 259 269 267 266 276 331 275 280 285 275 247 254 263 287 272 269 325
360 1 357 4 9 13 295 316 296 300 295 335 341 345 2 351 343 316 301 312 8 10 327 314 310 284 266 261 258 243 249 237 174 267 293 260 246 245 279 275 276 305 331 21
353 358 358 360 1 1 329 302 359 326 301 324 323 335 329 330 317 354 332 53 115 347 338 315 313 298 313 282 314 47 318 253 274 244 221 253 317 315 5 130 299 37 13 333
348 353 0 357 356 358 340 286 1 319 317 180 356 343 3 351 332 326 341 333 37 24 339 8 294 306 279 289 312 52 31 131 95 300 313 258 352 8 10 84 285 23 295 274
343 350 357 356 355 355 345 288 322 311 287 266 3 328 315 340 349 294 317 336 345 339 298 275 242 250 280 287 314 337 325 325 237 239 240 224 240 335 318 67 262 328 314 292
337 345 351 352 352 355 360 291 335 353 292 288 261 347 312 305 284 277 314 13 357 1 11 330 344 321 344 324 322 287 274 295 292 322 310 271 348 338 21 258 300 285 279 296
329 337 340 348 347 349 350 297 344 332 264 274 303 283 267 239 246 255 252 239 348 253 56 337 335 314 291 272 282 326 306 248 279 248 263 299 298 281 294 313 313 309 319 300
323 324 330 337 340 335 346 296 302 294 267 291 275 295 9 182 216 192 183 248 213 45 77 322 269 257 348 308 291 301 294 306 303 310 285 302 325 325 331 337 327 343 334 327
302 308 318 323 331 326 325 291 299 295 281 293 293 2 329 306 294 248 208 209 256 154 142 236 243 242 237 254 276 288 285 305 296 294 305 313 290 323 332 318 337 339 318 309
288 290 305 314 324 322 307 263 251 255 264 298 305 305 282 286 305 208 219 180 177 178 169 189 231 252 281 293 278 271 257 347 322 307 308 314 311 323 311 330 323 312 329 332
291 288 294 308 319 326 300 4 99 29 0 297 306 319 280 284 203 227 199 218 179 159 143 214 265 297 330 256 265 308 5 321 352 334 326 310 295 300 282 308 341 353 346 6
283 292 294 300 307 302 270 327 307 315 323 267 282 283 297 229 239 208 238 171 156 136 164 217 236 244 215 258 274 345 325 326 323 303 302 318 328 342 9 2 349 351 7 344
282 289 295 298 295 280 260 234 245 232 251 262 264 275 272 308 314 21 213 202 132 160 202 207 230 256 209 258 337 324 319 319 306 336 334 320 336 359 359 344 7 357 343 334
290 298 293 281 192 227 142 112 98 179 281 283 259 274 282 19 334 341 301 219 198 100 192 218 207 243 217 278 302 307 306 304 320 328 345 352 345 347 340 355 12 351 344 350
296 283 224 206 231 136 110 52 204 190 222 241 262 293 282 319 295 307 351 283 230 201 199 78 227 343 248 302 306 295 312 321 358 339 340 349 351 343 352 14 13 359 2 359
196 256 6 339 164 206 209 206 195 182 225 213 234 223 252 271 301 291 235 305 294 280 115 239 182 263 338 322 318 325 315 352 16 341 349 359 351 347 12 17 19 20 8 11
301 294 270 246 242 219 242 216 196 197 243 165 218 222 205 261 204 207 260 218 292 263 175 225 314 63 329 327 325 320 339 41 350 6 14 4 6 19 27 32 28 24 22 8
251 195 244 224 230 216 218 216 220 201 224 164 213 224 210 224 175 232 199 219 231 346 4 4 53 315 332 332 321 329 98 41 18 29 26 16 24 38 41 44 40 42 25 7
233 220 226 229 199 217 204 239 270 289 70 297 232 248 239 219 175 234 214 244 20 312 246 63 269 347 325 327 320 325 157 57 36 47 31 34 27 58 46 49 48 51 32 345
248 234 234 228 243 278 288 252 218 254 159 229 244 253 245 292 272 247 293 262 154 264 111 231 81 305 308 318 311 316 337 67 49 47 46 41 69 60 59 52 66 63 41 356
248 239 262 278 268 259 262 260 216 181 243 208 188 264 259 237 231 213 236 134 283 255 208 185 139 298 293 316 313 314 94 79 78 67 63 22 76 83 86 67 50 73 49 19
237 237 235 261 285 283 286 302 300 334 190 211 153 232 220 234 230 286 359 30 278 57 105 117 169 250 316 315 304 78 109 92 94 92 75 72 82 88 92 77 68 67 42 351